Showing default

GSAT 6, 40880

Orbit data source: Space-Track

GSAT 6, 40880 is a payload satellite owned by ISRO (IN) in GEO that was launched on Thu, 27 Aug 2015 UTC via a GSLV MK II launch vehicle from the Sirharikota (SRI). Payload-class satellites include a variety of spacecraft equipped with specific instruments for various scientific and technological missions. These include communications satellites like Starlink; space stations such as the ISS; scientific satellites like the Hubble; Earth observation satellites from companies like Planet Labs, Umbra, and HawkEye 360; GPS; miniature CubeSats for education and research; and military/defense satellites.

Not visible in the next 10 days
Identifier
40880, 2015-041A
Orbit
GEO
Country
Flag of ININ / IND
Related business
Manufacturer
ISRO SAC/Banga
Mission
Operational Defense Communications
Bus & Motor
I2K, ISRO LAM
Mass
2,217 kg wet, 985 kg dry
Launch date (UTC)
2015-08-27 (11 years ago)
Launch vehicle
GSLV MK II
Launch site
Sirharikota (SRI)
Object type
Payload
Rocket body
Debris
Shape & HBR
Box + 2 Pan, 4.8 m
Radar Cross Section
13.236 m², Large (>1 m²)

Expand to show TLE details & history
Last TLE update: 6 hours ago

TLE from 6 hours ago
0 GSAT 6
1 40880U 15041A   26257.16345046 -.00000168  00000-0  00000+0 0  9997
2 40880   2.1422  81.3685 0002976  90.4788 322.6205  1.00271255 40494
Epoch: 2026-09-14T03:55Z
TLE epoch observation values (Epoch: 2026-09-14T03:55:22.119Z)
Latitude
1.69845°
Longitude
82.42988°
Altitude
35,776.018 km
Speed
3.075 km/s
True Right ascension
08h 57m 40s
True Declination
1° 41' 48"
Sunlit
Object was in daylight at epoch
Visualization orbit readout
Latitude
Unknown
Longitude
Unknown
Altitude
Unknown
Speed
Unknown
Apparent Right ascension
Unknown
Apparent Declination
Unknown
Sunlit
N/A
Visualization observer readout
Local Sidereal Time
02:47:13
Azimuth
Unknown
Elevation
Unknown
Doppler factor
Unknown
Orbital elements
Apogee altitude
35,800.36 km
Perigee altitude
35,775.263 km
Semi-major axis
42,165.949 km
Eccentricity
0.0003
Inclination
2.1422°
RAAN
81.3685°
Arg. of periapsis
90.4788°
True anomaly
322.59979°
Mean anomaly
322.6205°
Eccentric anomaly
322.61015°
Mean motion
0.25067 °/min
Orbital period
1,436.16 mins
BSTAR
0
Loading maneuver chart data...
Computing Atmospheric mass density...
Loading historical data...
Loading historical data...
Loading historical data...
Loading historical data...
Loading historical data...
Loading historical data...
Loading historical data...
Other satellites on launch #41 in the year 2015 (2015-08-27 UTC)

Documentation

Showing up to 5 results
|